星链-32179 (STARLINK-32179)

导读 | 豆包AI

STARLINK-32179是美国太空探索技术公司(SpaceX)星链星座的成员,于2024年8月28日由美国发射入轨。作为星链低轨卫星互联网项目的组成部分,它运行在近地轨道,承担全球宽带互联网接入任务,重点为偏远、基础设施匮乏地区提供低时延、高速的网络连接服务,助力星链实现全球覆盖目标,持续完善太空星座网络布局。

基本信息
目录编号:
60734
目录名称:
STARLINK-32179
国际标识:
2024-152Q
轨道中心:
EARTH
卫星名称:
星链-32179 (STARLINK-32179)
卫星全名:
星链-32179 (STARLINK-32179)
卫星状态:
在轨 (已飞行611 天)
发射日期:
2024-08-28 UTC
国别 :
美国 (US)
星等 :
--
轨道信息
数据来源 国际轨道数据
星历时间: 2026-04-30T19:20:48+0800
16小时前
查看轨道信息
半长轴: 6853.364km
偏心率: 0.0002087
轨道倾角: 53.162°
近地点辐角 82.105°
升交点赤经 28.289°
平近点角 278.019°
近地点: 473.796km
远地点: 476.658km
周期: 94.106分钟
每日圈数: 15.301963
详细信息
卫星平台:
Starlink v2.0 mini
运营商:
太空探索技术公司
运营商所在国:
美国
制造商(研发单位):
太空探索技术公司
制造商所在国:
美国
使用方式:
暂无
卫星简介
星链(Starlink)计划是由太空探索技术公司(SpaceX)提出的一个巨型低轨卫星互联网星座项目,计划在2019年至2024年间在太空搭建由约1.2万颗卫星组成的“星链”网络,其中1584颗将部署在地球上空550千米处的近地轨道,并从2020年开始工作。该卫星仍在工作。
2D轨道图
3D轨道图
轨道高度分析图
轨道倾角分析图
轨道综合分析图
查看轨道综合分析图